DW4879 Weather Reports


Display with metric or nautical units.
time (UTC)temp
F
wind
direction
speed
MPH
gust
MPH
rain 1hr
in
rain 24hr
in
rain mn
in
humidity
%
barometer
mb
20260904120540 63 101 3.0 6.0 0.00 0.00 0.00 57 1022.2
20260904120051 63 91 3.0 4.0 0.00 0.00 0.00 56 1022.2
20260904115558 63 102 2.0 4.0 0.00 0.00 0.00 55 1022.2
20260904115106 63 105 2.0 5.0 0.00 0.00 0.00 55 1022.2
20260904114555 63 105 3.0 5.0 0.00 0.00 0.00 54 1022.0
20260904114102 64 72 3.0 5.0 0.00 0.00 0.00 54 1021.9
20260904113555 64 82 3.0 5.0 0.00 0.00 0.00 54 1022.0
20260904113103 64 84 4.0 8.0 0.00 0.00 0.00 54 1022.0
20260904112509 64 107 3.0 8.0 0.00 0.00 0.00 54 1022.0
20260904112100 64 71 3.0 6.0 0.00 0.00 0.00 54 1021.9
20260904111504 64 79 3.0 5.0 0.00 0.00 0.00 54 1021.9
20260904111012 64 95 2.0 5.0 0.00 0.00 0.00 54 1022.0
20260904110520 64 104 2.0 5.0 0.00 0.00 0.00 54 1021.9
20260904110027 64 96 2.0 5.0 0.00 0.00 0.00 54 1022.0
20260904105538 64 63 2.0 8.0 0.00 0.00 0.00 54 1022.0
20260904105045 64 78 4.0 8.0 0.00 0.00 0.00 55 1021.9
20260904104556 64 83 3.0 7.0 0.00 0.00 0.00 55 1021.9
20260904104042 64 77 3.0 6.0 0.00 0.00 0.00 56 1021.9
20260904103549 64 68 3.0 5.0 0.00 0.00 0.00 56 1021.8
20260904103057 64 84 2.0 5.0 0.00 0.00 0.00 55 1021.9
20260904102605 64 92 3.0 6.0 0.00 0.00 0.00 55 1021.8
20260904102008 64 71 4.0 6.0 0.00 0.00 0.00 56 1021.8
20260904101516 64 92 2.0 6.0 0.00 0.00 0.00 57 1021.7
20260904101023 65 87 3.0 7.0 0.00 0.00 0.00 57 1021.7
20260904100530 65 119 3.0 4.0 0.00 0.00 0.00 58 1021.5
20260904100009 65 96 2.0 4.0 0.00 0.00 0.00 58 1021.5
20260904095602 65 98 2.0 4.0 0.00 0.00 0.00 59 1021.3
20260904095103 65 78 1.0 3.0 0.00 0.00 0.00 60 1021.4
20260904094506 65 94 0.0 2.0 0.00 0.00 0.00 60 1021.3
20260904094013 65 65 0.0 2.0 0.00 0.00 0.00 60 1021.2
20260904093521 65 65 1.0 4.0 0.00 0.00 0.00 60 1021.2
20260904093029 65 80 1.0 4.0 0.00 0.00 0.00 60 1021.3
20260904092536 65 101 2.0 4.0 0.00 0.00 0.00 60 1021.1
20260904092044 65 89 2.0 3.0 0.00 0.00 0.00 60 1021.2
20260904091552 65 5 0.0 2.0 0.00 0.00 0.00 59 1021.2
20260904091042 65 5 0.0 2.0 0.00 0.00 0.00 59 1021.2
20260904090550 66 5 0.0 2.0 0.00 0.00 0.00 59 1021.2
20260904090108 66 5 0.0 2.0 0.00 0.00 0.00 59 1021.1
20260904085502 66 5 0.0 2.0 0.00 0.00 0.00 59 1021.0
20260904085056 66 5 1.0 2.0 0.00 0.00 0.00 58 1021.0
20260904084612 66 116 1.0 2.0 0.00 0.00 0.00 58 1021.1
20260904084100 66 116 0.0 2.0 0.00 0.00 0.00 57 1021.2
20260904083604 67 116 0.0 2.0 0.00 0.00 0.00 57 1021.2
20260904083057 67 116 0.0 2.0 0.00 0.00 0.00 57 1021.2
20260904082550 67 116 0.0 2.0 0.00 0.00 0.00 57 1021.3
20260904082055 67 116 1.0 3.0 0.00 0.00 0.00 56 1021.3
20260904081603 67 116 2.0 3.0 0.00 0.00 0.00 56 1021.3
20260904081005 68 129 2.0 2.0 0.00 0.00 0.00 55 1021.3
20260904080602 68 129 1.0 2.0 0.00 0.00 0.00 55 1021.3
20260904080004 68 129 1.0 3.0 0.00 0.00 0.00 55 1021.3
20260904075600 68 129 2.0 3.0 0.00 0.00 0.00 55 1021.2
20260904075006 69 124 1.0 3.0 0.00 0.00 0.00 54 1021.3
20260904074607 69 140 1.0 3.0 0.00 0.00 0.00 54 1021.2
20260904074051 69 140 1.0 3.0 0.00 0.00 0.00 54 1021.2
20260904073600 69 151 1.0 4.0 0.00 0.00 0.00 54 1021.3
20260904073052 69 161 2.0 6.0 0.00 0.00 0.00 54 1021.3
20260904072542 69 142 3.0 6.0 0.00 0.00 0.00 53 1021.2
20260904072049 70 143 1.0 3.0 0.00 0.00 0.00 53 1021.2
20260904071607 70 159 1.0 4.0 0.00 0.00 0.00 53 1021.2
20260904071001 70 165 3.0 5.0 0.00 0.00 0.00 52 1021.3
20260904070557 71 141 3.0 4.0 0.00 0.00 0.00 52 1021.2
20260904070107 71 161 1.0 3.0 0.00 0.00 0.00 51 1021.3
20260904065554 71 185 1.0 6.0 0.00 0.00 0.00 51 1021.3
20260904065104 71 169 3.0 6.0 0.00 0.00 0.00 51 1021.3
20260904064555 71 151 3.0 6.0 0.00 0.00 0.00 51 1021.3
20260904064047 71 168 3.0 7.0 0.00 0.00 0.00 51 1021.2
20260904063555 71 142 4.0 7.0 0.00 0.00 0.00 50 1021.2
20260904063045 72 155 3.0 8.0 0.00 0.00 0.00 50 1021.1
20260904062553 72 142 3.0 8.0 0.00 0.00 0.00 50 1021.1
20260904062103 72 166 4.0 9.0 0.00 0.00 0.00 50 1021.1
20260904061504 72 154 5.0 9.0 0.00 0.00 0.00 50 1021.0
20260904061059 72 165 4.0 8.0 0.00 0.00 0.00 49 1021.1
20260904060504 72 171 4.0 8.0 0.00 0.00 0.00 49 1021.0
20260904060010 72 126 5.0 10.0 0.00 0.00 0.00 49 1021.0
20260904055604 72 145 4.0 10.0 0.00 0.00 0.00 49 1021.0
20260904055008 72 124 4.0 9.0 0.00 0.00 0.00 49 1021.1
20260904054606 72 160 5.0 9.0 0.00 0.00 0.00 49 1021.1
20260904054007 73 173 3.0 11.0 0.00 0.00 0.00 49 1021.1
20260904053603 73 146 5.0 11.0 0.00 0.00 0.00 49 1021.0
20260904053102 73 150 6.0 11.0 0.00 0.00 0.00 48 1021.0
20260904052603 73 162 5.0 10.0 0.00 0.00 0.00 48 1020.9
20260904052056 73 167 6.0 11.0 0.00 0.00 0.00 47 1021.0
20260904051546 74 161 3.0 9.0 0.00 0.00 0.00 47 1021.0
20260904051054 74 167 5.0 9.0 0.00 0.00 0.00 46 1021.0
20260904050603 74 160 3.0 7.0 0.00 0.00 0.00 47 1021.0
20260904050005 74 180 4.0 11.0 0.00 0.00 0.00 47 1020.9
20260904045559 74 144 6.0 14.0 0.00 0.00 0.00 47 1021.0
20260904045003 74 156 7.0 14.0 0.00 0.00 0.00 47 1021.0
20260904044600 75 173 7.0 11.0 0.00 0.00 0.00 46 1021.0
20260904044003 75 157 7.0 10.0 0.00 0.00 0.00 45 1021.0
20260904043602 75 192 6.0 15.0 0.00 0.00 0.00 45 1021.0
20260904043104 75 164 8.0 15.0 0.00 0.00 0.00 46 1021.0
20260904042604 75 151 6.0 15.0 0.00 0.00 0.00 46 1020.9
20260904042053 75 161 7.0 16.0 0.00 0.00 0.00 45 1021.0
20260904041601 75 140 8.0 16.0 0.00 0.00 0.00 44 1021.0
20260904041053 75 163 8.0 13.0 0.00 0.00 0.00 40 1021.0
20260904040543 75 121 2.0 4.0 0.00 0.00 0.00 35 1021.0
20260904040051 76 139 3.0 8.0 0.00 0.00 0.00 35 1020.8
20260904035559 76 143 4.0 8.0 0.00 0.00 0.00 35 1020.9
20260904035003 76 121 2.0 3.0 0.00 0.00 0.00 34 1020.8
20260904034557 76 110 2.0 2.0 0.00 0.00 0.00 34 1020.7
20260904034105 76 126 1.0 2.0 0.00 0.00 0.00 34 1020.7
20260904033559 76 126 1.0 2.0 0.00 0.00 0.00 34 1020.7
20260904033105 76 126 1.0 2.0 0.00 0.00 0.00 33 1020.7
20260904032558 76 126 1.0 2.0 0.00 0.00 0.00 33 1020.6
20260904032050 76 132 1.0 3.0 0.00 0.00 0.00 33 1020.6
20260904031558 76 132 2.0 3.0 0.00 0.00 0.00 33 1020.5
20260904031054 76 161 1.0 2.0 0.00 0.00 0.00 32 1020.5
20260904030541 76 174 1.0 1.0 0.00 0.00 0.00 32 1020.4
20260904030049 76 263 0.0 0.0 0.00 0.00 0.00 32 1020.3
20260904025559 76 263 0.0 0.0 0.00 0.00 0.00 32 1020.3
20260904025105 77 263 0.0 0.0 0.00 0.00 0.00 32 1020.3
20260904024556 77 263 0.0 0.0 0.00 0.00 0.00 32 1020.3
20260904024105 77 263 0.0 0.0 0.00 0.00 0.00 31 1020.2
20260904023556 77 263 0.0 0.0 0.00 0.00 0.00 31 1020.1
20260904023105 78 263 0.0 0.0 0.00 0.00 0.00 31 1020.1
20260904022558 78 263 0.0 0.0 0.00 0.00 0.00 31 1020.2
20260904022046 78 263 0.0 0.0 0.00 0.00 0.00 31 1020.1
20260904021557 79 263 0.0 0.0 0.00 0.00 0.00 30 1020.0
20260904021102 79 263 0.0 0.0 0.00 0.00 0.00 30 1020.0
20260904020505 79 263 0.0 0.0 0.00 0.00 0.00 30 1019.9
20260904020028 80 263 0.0 0.0 0.00 0.00 0.00 29 1019.9
20260904015536 80 263 0.0 0.0 0.00 0.00 0.00 29 1019.9
20260904015044 80 263 0.0 0.0 0.00 0.00 0.00 29 1020.0
20260904014556 81 263 0.0 0.0 0.00 0.00 0.00 29 1019.9
20260904014100 81 263 0.0 1.0 0.00 0.00 0.00 28 1020.0
20260904013502 82 263 0.0 2.0 0.00 0.00 0.00 28 1019.9
20260904013112 82 263 0.0 2.0 0.00 0.00 0.00 28 1019.9
20260904012502 82 263 1.0 4.0 0.00 0.00 0.00 27 1020.0
20260904012058 82 259 2.0 4.0 0.00 0.00 0.00 28 1020.0
20260904011553 82 251 1.0 4.0 0.00 0.00 0.00 27 1020.0
20260904011056 83 231 1.0 5.0 0.00 0.00 0.00 27 1020.0
20260904010604 83 277 2.0 7.0 0.00 0.00 0.00 27 1020.0
20260904010010 83 236 3.0 7.0 0.00 0.00 0.00 27 1020.0
20260904005603 84 209 1.0 6.0 0.00 0.00 0.00 26 1020.0
20260904005004 84 232 2.0 9.0 0.00 0.00 0.00 25 1020.0
20260904004602 85 276 4.0 9.0 0.00 0.00 0.00 25 1020.0
20260904004006 85 270 1.0 8.0 0.00 0.00 0.00 25 1020.1
20260904003601 85 267 4.0 13.0 0.00 0.00 0.00 25 1020.0
20260904003053 85 205 2.0 13.0 0.00 0.00 0.00 24 1020.1
20260904002604 86 294 2.0 6.0 0.00 0.00 0.00 25 1020.0
20260904002055 86 312 2.0 8.0 0.00 0.00 0.00 25 1020.0
20260904001543 86 329 4.0 8.0 0.00 0.00 0.00 26 1020.1
20260904001052 87 190 1.0 7.0 0.00 0.00 0.00 25 1020.1
20260904000559 87 194 1.0 8.0 0.00 0.00 0.00 25 1020.2
20260904000002 87 196 2.0 7.0 0.00 0.00 0.00 25 1020.1
20260903235557 87 168 2.0 5.0 0.00 0.00 0.00 25 1020.2
20260903235104 87 155 2.0 8.0 0.00 0.00 0.00 25 1020.1
20260903234558 87 220 3.0 6.0 0.00 0.00 0.00 25 1020.3
20260903234001 87 213 1.0 9.0 0.00 0.00 0.00 25 1020.2
20260903233557 87 134 4.0 9.0 0.00 0.00 0.00 25 1020.3
20260903233052 87 155 4.0 10.0 0.00 0.00 0.00 25 1020.3
20260903232559 87 169 6.0 10.0 0.00 0.00 0.00 25 1020.3
20260903232052 87 185 4.0 9.0 0.00 0.00 0.00 25 1020.4
20260903231543 87 178 4.0 10.0 0.00 0.00 0.00 25 1020.4
20260903231050 87 171 4.0 10.0 0.00 0.00 0.00 26 1020.4
20260903230542 87 304 2.0 7.0 0.00 0.00 0.00 25 1020.5
20260903230049 87 203 4.0 7.0 0.00 0.00 0.00 25 1020.5
20260903225557 88 186 2.0 5.0 0.00 0.00 0.00 25 1020.5
20260903225106 88 244 1.0 8.0 0.00 0.00 0.00 25 1020.5
20260903224555 88 220 1.0 7.0 0.00 0.00 0.00 25 1020.6
20260903224105 88 263 1.0 5.0 0.00 0.00 0.00 25 1020.6
20260903223559 88 132 1.0 9.0 0.00 0.00 0.00 25 1020.7
20260903223111 88 197 5.0 9.0 0.00 0.00 0.00 25 1020.8
20260903222557 88 259 2.0 6.0 0.00 0.00 0.00 26 1020.7
20260903222048 88 257 1.0 8.0 0.00 0.00 0.00 26 1020.8
20260903221556 88 145 3.0 11.0 0.00 0.00 0.00 26 1020.9
20260903221102 88 235 6.0 11.0 0.00 0.00 0.00 26 1021.0
20260903220505 87 255 4.0 8.0 0.00 0.00 0.00 26 1021.0
20260903220107 87 203 5.0 8.0 0.00 0.00 0.00 26 1020.9
20260903215549 87 15 1.0 6.0 0.00 0.00 0.00 26 1021.1
20260903215056 86 176 2.0 6.0 0.00 0.00 0.00 27 1021.2
20260903214604 86 340 1.0 4.0 0.00 0.00 0.00 27 1021.2
20260903214007 85 329 2.0 6.0 0.00 0.00 0.00 28 1021.3
20260903213605 85 292 3.0 12.0 0.00 0.00 0.00 27 1021.3
20260903213013 85 329 7.0 12.0 0.00 0.00 0.00 27 1021.2
20260903212605 86 294 3.0 9.0 0.00 0.00 0.00 27 1021.3
20260903212006 86 271 5.0 9.0 0.00 0.00 0.00 26 1021.4
20260903211515 87 217 1.0 8.0 0.00 0.00 0.00 27 1021.5
20260903211022 87 229 4.0 10.0 0.00 0.00 0.00 27 1021.5
20260903210531 87 215 2.0 10.0 0.00 0.00 0.00 27 1021.6
20260903210048 86 201 1.0 10.0 0.00 0.00 0.00 28 1021.6
20260903205546 85 215 6.0 10.0 0.00 0.00 0.00 29 1021.8
20260903205037 84 96 2.0 9.0 0.00 0.00 0.00 29 1021.8
20260903204546 85 96 4.0 9.0 0.00 0.00 0.00 28 1021.8
20260903204055 85 169 5.0 9.0 0.00 0.00 0.00 28 1021.9
20260903203603 85 188 2.0 9.0 0.00 0.00 0.00 28 1021.9
20260903203052 85 275 3.0 9.0 0.00 0.00 0.00 28 1022.0
20260903202600 86 193 2.0 10.0 0.00 0.00 0.00 27 1022.0
20260903202053 87 193 4.0 10.0 0.00 0.00 0.00 27 1021.9
20260903201601 86 226 5.0 15.0 0.00 0.00 0.00 27 1022.0
20260903201053 85 180 6.0 11.0 0.00 0.00 0.00 29 1022.0
20260903200543 83 234 3.0 13.0 0.00 0.00 0.00 30 1022.1
20260903200058 82 252 9.0 13.0 0.00 0.00 0.00 30 1022.0
20260903195546 82 265 7.0 10.0 0.00 0.00 0.00 30 1022.1
20260903195052 82 251 0.0 9.0 0.00 0.00 0.00 31 1022.2
20260903194600 82 238 6.0 11.0 0.00 0.00 0.00 31 1022.3
20260903194002 83 340 6.0 12.0 0.00 0.00 0.00 29 1022.4
20260903193600 83 292 3.0 10.0 0.00 0.00 0.00 29 1022.5
20260903193004 83 271 5.0 13.0 0.00 0.00 0.00 30 1022.6
20260903192602 83 9 6.0 13.0 0.00 0.00 0.00 29 1022.6
20260903192052 84 331 2.0 8.0 0.00 0.00 0.00 30 1022.8
20260903191559 83 133 4.0 10.0 0.00 0.00 0.00 30 1022.9
20260903191053 82 294 5.0 13.0 0.00 0.00 0.00 30 1022.9
20260903190544 83 271 5.0 13.0 0.00 0.00 0.00 30 1022.9
20260903190054 83 247 3.0 9.0 0.00 0.00 0.00 30 1023.0
20260903185559 82 238 3.0 10.0 0.00 0.00 0.00 31 1023.0
20260903185002 82 268 3.0 7.0 0.00 0.00 0.00 31 1023.1
20260903184556 81 221 3.0 9.0 0.00 0.00 0.00 31 1023.2
20260903184104 81 313 3.0 10.0 0.00 0.00 0.00 31 1023.3
20260903183556 81 262 4.0 10.0 0.00 0.00 0.00 32 1023.3
20260903183105 81 334 5.0 10.0 0.00 0.00 0.00 31 1023.4
20260903182558 81 171 2.0 5.0 0.00 0.00 0.00 31 1023.5
20260903182049 80 19 0.0 9.0 0.00 0.00 0.00 33 1023.5
20260903181556 79 223 3.0 10.0 0.00 0.00 0.00 32 1023.6
20260903181104 80 268 5.0 10.0 0.00 0.00 0.00 33 1023.6
20260903180506 79 341 1.0 9.0 0.00 0.00 0.00 34 1023.7
20260903180053 79 5 2.0 11.0 0.00 0.00 0.00 34 1023.8
20260903175602 78 266 6.0 12.0 0.00 0.00 0.00 34 1023.8
20260903175003 78 306 7.0 12.0 0.00 0.00 0.00 34 1023.8
20260903174558 78 267 5.0 9.0 0.00 0.00 0.00 34 1023.8
20260903174003 77 289 1.0 12.0 0.00 0.00 0.00 36 1024.0
20260903173559 77 294 7.0 11.0 0.00 0.00 0.00 35 1023.9
20260903173007 78 297 5.0 10.0 0.00 0.00 0.00 35 1023.9
20260903172601 78 282 4.0 9.0 0.00 0.00 0.00 34 1023.9
20260903172055 79 249 2.0 9.0 0.00 0.00 0.00 33 1023.9
20260903171603 79 304 4.0 8.0 0.00 0.00 0.00 33 1024.0
20260903171108 79 204 2.0 8.0 0.00 0.00 0.00 35 1023.9
20260903170508 80 264 3.0 6.0 0.00 0.00 0.00 35 1023.9
20260903170108 79 215 3.0 6.0 0.00 0.00 0.00 37 1023.9
20260903165507 79 118 1.0 4.0 0.00 0.00 0.00 38 1023.9
20260903165105 78 175 0.0 4.0 0.00 0.00 0.00 38 1024.0
20260903164508 78 50 1.0 3.0 0.00 0.00 0.00 39 1023.9
20260903164105 77 84 0.0 4.0 0.00 0.00 0.00 39 1023.9
20260903163555 77 169 1.0 4.0 0.00 0.00 0.00 40 1024.0
20260903163102 76 155 1.0 3.0 0.00 0.00 0.00 41 1023.9
20260903162504 76 66 1.0 5.0 0.00 0.00 0.00 42 1023.9
20260903162013 75 135 1.0 4.0 0.00 0.00 0.00 42 1023.9
20260903161522 75 163 2.0 4.0 0.00 0.00 0.00 43 1023.9
20260903161027 74 207 2.0 4.0 0.00 0.00 0.00 44 1023.8
20260903160535 74 119 2.0 7.0 0.00 0.00 0.00 45 1023.9
20260903160043 73 144 2.0 7.0 0.00 0.00 0.00 45 1023.9
20260903155548 73 113 2.0 8.0 0.00 0.00 0.00 46 1023.9
20260903155056 72 150 3.0 8.0 0.00 0.00 0.00 47 1024.0
20260903154604 72 115 3.0 8.0 0.00 0.00 0.00 47 1023.9
20260903154006 71 142 5.0 8.0 0.00 0.00 0.00 48 1024.0
20260903153517 71 90 4.0 8.0 0.00 0.00 0.00 48 1024.0
20260903153019 70 110 5.0 8.0 0.00 0.00 0.00 49 1024.0
20260903152527 70 116 3.0 8.0 0.00 0.00 0.00 49 1024.0
20260903152035 70 135 4.0 8.0 0.00 0.00 0.00 50 1024.0
20260903151543 69 147 3.0 8.0 0.00 0.00 0.00 51 1023.9
20260903151051 69 107 5.0 8.0 0.00 0.00 0.00 51 1024.0
20260903150542 68 121 5.0 8.0 0.00 0.00 0.00 52 1024.0
20260903150059 68 117 5.0 9.0 0.00 0.00 0.00 52 1024.0
20260903145557 67 126 5.0 9.0 0.00 0.00 0.00 51 1023.9
20260903145002 67 119 4.0 7.0 0.00 0.00 0.00 54 1023.9
20260903144556 67 105 3.0 7.0 0.00 0.00 0.00 54 1024.0
20260903144104 66 88 3.0 8.0 0.00 0.00 0.00 54 1024.0
20260903143556 66 86 3.0 8.0 0.00 0.00 0.00 54 1024.0
20260903143110 65 110 4.0 8.0 0.00 0.00 0.00 54 1023.9
20260903142557 65 86 4.0 8.0 0.00 0.00 0.00 55 1023.9
20260903142049 65 103 3.0 8.0 0.00 0.00 0.00 56 1023.8
20260903141555 64 124 5.0 8.0 0.00 0.00 0.00 55 1023.8
20260903141103 64 135 5.0 8.0 0.00 0.00 0.00 56 1023.7
20260903140507 64 121 4.0 8.0 0.00 0.00 0.00 56 1023.7
20260903140051 63 111 5.0 8.0 0.00 0.00 0.00 57 1023.7
20260903135601 63 121 4.0 8.0 0.00 0.00 0.00 58 1023.7
20260903135053 62 107 5.0 8.0 0.00 0.00 0.00 59 1023.7
20260903134611 62 119 4.0 8.0 0.00 0.00 0.00 60 1023.7
20260903134005 61 105 5.0 7.0 0.00 0.00 0.00 61 1023.6
20260903133600 61 128 4.0 7.0 0.00 0.00 0.00 61 1023.6
20260903133002 60 111 3.0 6.0 0.00 0.00 0.00 62 1023.6
20260903132558 60 122 3.0 6.0 0.00 0.00 0.00 63 1023.6
20260903132048 59 107 4.0 6.0 0.00 0.00 0.00 64 1023.6
20260903131557 59 123 3.0 6.0 0.00 0.00 0.00 64 1023.6
20260903131105 58 117 3.0 5.0 0.00 0.00 0.00 65 1023.4
20260903130507 58 99 4.0 7.0 0.00 0.00 0.00 65 1023.4
20260903125506 58 99 3.0 7.0 0.00 0.00 0.00 66 1023.4
20260903125013 58 88 3.0 8.0 0.00 0.00 0.00 66 1023.3
20260903124519 58 90 4.0 8.0 0.00 0.00 0.00 66 1023.2
20260903124027 58 67 4.0 8.0 0.00 0.00 0.00 65 1023.2
20260903123536 58 92 4.0 8.0 0.00 0.00 0.00 65 1023.3
20260903123043 58 89 4.0 9.0 0.00 0.00 0.00 65 1023.3
20260903122553 58 87 6.0 9.0 0.00 0.00 0.00 65 1023.1
20260903122059 58 107 4.0 7.0 0.00 0.00 0.00 65 1023.1
20260903121502 58 96 3.0 7.0 0.00 0.00 0.00 65 1023.1
20260903121057 58 96 4.0 7.0 0.00 0.00 0.00 65 1023.1